[[{"header":{"parameterUnit":"m.s-1","parameterCategory":1,"la1":30.2991,"la2":30.254,"lo1":-89.0895,"lo2":-89.0444,"dy":0.0017,"dx":0.0017,"nx":28,"ny":28,"refTime":"2024-06-04T21:00:00:Z","depth":0,"parameterNumber":2,"parameterNumberName":"U-component_of_WINDS"},"data":[0,0,0,0,0,0,0,0,0,0,0,0,0,0,0,0,0,0,0,0,0,0,0,0,0,0,0,0,0,0,0,0,0,0,0,0,0,0,0,0,0,0,0,0,0,0,0,0,0,0,0,0,0,0,0,0,0,0,0.5156,0.5155,0,0.5031,0.503,0.5028,0.4948,0.4947,0.4947,0.4946,0.4815,0.4812,0.4809,0,0,0,0,0,0,0,0,0,0,0,0,0,0.5321,0.5319,0.5157,0.5155,0.5153,0.5031,0.503,0.5028,0.4948,0.4947,0.4947,0.4946,0.4816,0.4812,0.4809,0,0,0,0,0,0,0,0,0,0,0,0,0,0.5228,0.5318,0.5157,0.5099,0.5092,0.5032,0.5029,0.5027,0.4948,0.4947,0.4946,0.4946,0.4817,0.4813,0.4808,0.4795,0,0,0.4794,0.4792,0,0,0,0,0,0,0,0,0.5234,0.5222,0.5109,0.5103,0.5095,0.5004,0.5039,0.4949,0.4948,0.5003,0.4946,0.4945,0.4878,0.4869,0.4847,0.4788,0.4783,0.4794,0.4791,0.4789,0.4788,0,0,0,0,0,0,0,0.524,0.5227,0.5107,0.5107,0.5099,0.5077,0.5063,0.5022,0.4946,0.4998,0.4992,0.4978,0.4874,0.4851,0.4843,0.4781,0.4794,0.479,0.4787,0.4785,0.4701,0.4701,0,0,0,0,0,0,0.5256,0.5233,0.5111,0.5103,0.5164,0.5075,0.5059,0.5034,0.4946,0.4932,0.4979,0.4975,0.4859,0.4848,0.4838,0.4814,0.4789,0.4785,0.4782,0.47,0.4701,0.4701,0,0,0,0,0,0,0.526,0.5246,0.5116,0.5166,0.5148,0.5073,0.5045,0.5032,0.5009,0.4932,0.4918,0.4969,0.4858,0.4845,0.4805,0.4808,0.4783,0.4779,0.47,0.4701,0.4701,0.4767,0,0,0,0,0,0,0.5265,0.5248,0.5244,0.5167,0.5146,0.5087,0.5046,0.503,0.5002,0.4995,0.4919,0.4906,0.4857,0.4813,0.4801,0.4801,0.4775,0.4699,0.47,0.4701,0.4764,0.477,0.4775,0,0,0,0,0,0.5272,0.5267,0.5244,0.523,0.5139,0.5087,0.5075,0.5019,0.5002,0.4996,0.4946,0.4908,0.481,0.4809,0.4795,0.4795,0.4699,0.47,0.4701,0.4762,0.4769,0.4774,0,0,0,0,0,0,0.5346,0.5256,0.5229,0.52,0.5152,0.5074,0.5064,0.5029,0.4984,0.498,0.4911,0.4895,0.4862,0.4824,0.4825,0.4775,0.475,0.4748,0.4801,0.4807,0.4812,0.4821,0.4771,0,0,0,0,0,0.5359,0.5326,0.5249,0.5231,0.5208,0.5141,0.5116,0.5077,0.5024,0.5003,0.495,0.4899,0.4856,0.4829,0.4786,0.4758,0.4739,0.4751,0.4756,0.4761,0.476,0.4739,0.4743,0.4705,0.4705,0.4705,0,0,0.5386,0.5333,0.5316,0.5244,0.5202,0.5168,0.5124,0.509,0.5063,0.4997,0.4957,0.4916,0.4854,0.482,0.4802,0.4788,0.4766,0.4762,0.4766,0.4763,0.4741,0.4744,0.4747,0.4706,0.4706,0.4706,0,0,0.5416,0.5374,0.5353,0.5311,0.5248,0.5203,0.5198,0.5124,0.5095,0.5053,0.5002,0.4968,0.4897,0.4854,0.4823,0.4834,0.4797,0.4822,0.4849,0.483,0.4833,0.4835,0.4837,0.4838,0.4821,0.4821,0.4822,0,0.5457,0.5405,0.5346,0.5314,0.5283,0.5222,0.5199,0.5161,0.5087,0.5066,0.505,0.4957,0.4912,0.4865,0.4868,0.4845,0.4835,0.483,0.4837,0.4839,0.484,0.4841,0.4842,0.4825,0.4824,0.4824,0.4824,0,0.5456,0.542,0.5411,0.534,0.5308,0.5281,0.5216,0.519,0.5153,0.5109,0.5065,0.5008,0.4951,0.4937,0.4901,0.4884,0.4877,0.4851,0.4824,0.4848,0.4847,0.4847,0.4829,0.4828,0.4827,0.4826,0,0,0.5531,0.5428,0.5425,0.5391,0.5316,0.5286,0.5255,0.5199,0.5177,0.5127,0.5097,0.5037,0.5011,0.4976,0.4934,0.4917,0.4927,0.4892,0.489,0.4899,0.4902,0.4921,0.4923,0.4902,0.4902,0.4902,0.4906,0,0.5549,0.5491,0.5436,0.5397,0.5361,0.5302,0.5274,0.5224,0.5181,0.5143,0.5095,0.5052,0.5023,0.5001,0.4982,0.493,0.4926,0.4929,0.4871,0.487,0.4888,0.4923,0.4943,0.4951,0.4906,0.4906,0.4906,0,0.5563,0.5515,0.5473,0.5398,0.5381,0.5358,0.53,0.5266,0.5206,0.5176,0.5136,0.5091,0.5053,0.5031,0.4975,0.4978,0.4951,0.4922,0.492,0.4912,0.4889,0.4913,0.4952,0.4952,0.4905,0.4905,0.4905,0,0.5619,0.5544,0.5508,0.5482,0.5395,0.5379,0.5342,0.5282,0.5251,0.52,0.5179,0.5125,0.5095,0.5053,0.4994,0.4983,0.4943,0.4917,0.4915,0.4917,0.4909,0.491,0.4942,0.4894,0.4894,0.4894,0.4894,0,0.5644,0.5619,0.5532,0.551,0.548,0.5416,0.5388,0.5345,0.5292,0.5258,0.5204,0.5173,0.5098,0.5058,0.5012,0.4971,0.4959,0.4931,0.4919,0.4935,0.4939,0.4916,0.4913,0.4894,0.4894,0.4894,0.4894,0,0.5701,0.5642,0.5599,0.552,0.5499,0.548,0.5411,0.5386,0.534,0.5298,0.5285,0.5211,0.5161,0.5098,0.5028,0.4997,0.496,0.4943,0.4981,0.4973,0.4975,0.4975,0.4992,0.499,0.4946,0.4946,0.4947,0,0.572,0.57,0.5619,0.5593,0.5557,0.5517,0.5485,0.542,0.5388,0.5318,0.5301,0.5246,0.5199,0.5121,0.5061,0.5006,0.4985,0.4995,0.4977,0.4993,0.4983,0.4984,0.4981,0.4999,0.5,0.5001,0.5002,0,0.576,0.5731,0.5688,0.5633,0.5596,0.555,0.5501,0.5483,0.5408,0.5375,0.5323,0.5287,0.5214,0.516,0.5097,0.5056,0.5015,0.5008,0.5004,0.502,0.5042,0.5028,0.4992,0.5008,0.5007,0.5007,0.5006,0.5006,0.5797,0.5775,0.5714,0.5667,0.5623,0.5578,0.555,0.55,0.5456,0.5392,0.5357,0.5305,0.5243,0.5154,0.5115,0.5072,0.5058,0.5053,0.5051,0.5051,0.5055,0.505,0.5061,0.5061,0.506,0.506,0.506,0,0.5832,0.5789,0.5746,0.568,0.5642,0.5608,0.5551,0.5521,0.5477,0.5423,0.5378,0.5316,0.5263,0.5197,0.5139,0.5117,0.5097,0.5104,0.5104,0.5095,0.5073,0.5081,0.5121,0.5121,0.5121,0.5121,0.5121,0.5121,0.5846,0.5806,0.577,0.5707,0.5664,0.5614,0.5584,0.5542,0.5498,0.5433,0.5388,0.5346,0.5286,0.5223,0.5171,0.5153,0.5133,0.5146,0.5122,0.5102,0.5097,0.5092,0.5099,0.5142,0.5142,0.5147,0.5147,0.5147]},{"header":{"parameterUnit":"m.s-1","parameterCategory":1,"la1":30.2991,"la2":30.254,"lo1":-89.0895,"lo2":-89.0444,"dy":0.0017,"dx":0.0017,"nx":28,"ny":28,"refTime":"2024-06-04T21:00:00:Z","depth":0,"parameterNumber":3,"parameterNumberName":"V-component_of_WINDS"},"data":[0,0,0,0,0,0,0,0,0,0,0,0,0,0,0,0,0,0,0,0,0,0,0,0,0,0,0,0,0,0,0,0,0,0,0,0,0,0,0,0,0,0,0,0,0,0,0,0,0,0,0,0,0,0,0,0,0,0,5.9851,5.9851,0,5.9858,5.9859,5.9859,5.9772,5.977,5.9768,5.9765,5.9771,5.9773,5.9776,0,0,0,0,0,0,0,0,0,0,0,0,0,5.976,5.9762,5.9851,5.9851,5.9851,5.9858,5.9859,5.9859,5.9773,5.977,5.9767,5.9764,5.977,5.9773,5.9776,0,0,0,0,0,0,0,0,0,0,0,0,0,5.9787,5.9763,5.9851,5.9809,5.9806,5.9858,5.9859,5.9859,5.9773,5.977,5.9766,5.9763,5.9769,5.9773,5.9776,5.9869,0,0,5.9787,5.9789,0,0,0,0,0,0,0,0,5.9785,5.979,5.9815,5.9812,5.9808,5.9811,5.9828,5.9862,5.9774,5.9786,5.9765,5.9761,5.9787,5.9789,5.9798,5.9869,5.987,5.9787,5.979,5.9791,5.9792,0,0,0,0,0,0,0,5.9784,5.9789,5.9854,5.9816,5.9812,5.9789,5.9789,5.9834,5.9806,5.9784,5.9778,5.978,5.9784,5.9795,5.9798,5.987,5.9787,5.9791,5.9793,5.9794,6.0015,6.0019,0,0,0,0,0,0,5.9788,5.9788,5.9854,5.9854,5.9788,5.9794,5.9794,5.9814,5.9805,5.9801,5.9783,5.9776,5.9791,5.9794,5.9797,5.9904,5.9791,5.9794,5.9796,6.0011,6.0016,6.002,0,0,0,0,0,0,5.9786,5.9794,5.9853,5.982,5.9825,5.9799,5.9822,5.9816,5.9826,5.9805,5.9799,5.9799,5.9788,5.9792,5.9851,5.9903,5.9796,5.9799,6.0007,6.0013,6.0018,6.0118,0,0,0,0,0,0,5.9784,5.9794,5.983,5.9821,5.9828,5.9909,5.9825,5.9818,5.9832,5.9823,5.9818,5.9814,5.9785,5.9847,5.9855,5.9906,5.9802,6.0002,6.0009,6.0016,6.011,6.0127,6.0141,0,0,0,0,0,5.9781,5.9858,5.9832,5.9841,5.9872,5.9912,5.9915,5.9882,5.9837,5.9872,5.9858,5.9814,5.9896,5.9853,5.9862,5.9915,5.9999,6.0007,6.0016,6.0103,6.0123,6.014,0,0,0,0,0,0,5.9874,5.9856,5.9827,5.9904,5.991,5.9897,5.994,5.9904,5.9923,5.9913,5.987,5.987,5.9935,5.9931,5.9884,6.0003,5.9939,5.995,6.0003,6.0022,6.0037,6.0036,5.9805,0,0,0,0,0,5.9903,5.9938,5.992,5.999,5.9994,5.9967,5.9983,5.9957,5.9961,5.9963,5.9953,5.9958,5.9985,6.0003,6.0027,6.0109,6.0106,6.015,6.0165,6.0178,6.0187,6.0228,6.0247,6.0048,6.0047,6.0047,0,0,5.9964,5.9959,5.9983,6.0008,6.0009,6.0045,5.997,6.0011,6.0036,5.9969,6.0023,6.0017,6.0019,6.009,6.0121,6.0089,6.0241,6.0188,6.0199,6.0201,6.0239,6.0258,6.0275,6.0053,6.0052,6.0051,0,0,6.0093,6.0093,6.015,6.0153,6.0156,6.0137,6.0151,6.0143,6.0136,6.0191,6.014,6.017,6.0217,6.0221,6.0229,6.0358,6.0318,6.0367,6.0446,6.0487,6.0503,6.0517,6.0561,6.0578,6.0377,6.0377,6.0377,0,6.0168,6.022,6.0184,6.0228,6.024,6.018,6.0237,6.0241,6.0252,6.0261,6.0225,6.0282,6.028,6.035,6.0381,6.039,6.0403,6.0367,6.0504,6.0517,6.0529,6.0571,6.0588,6.0383,6.0382,6.0381,6.0381,0,6.0311,6.0349,6.0394,6.0406,6.0422,6.0473,6.0443,6.0464,6.0436,6.0421,6.0476,6.0472,6.0492,6.0507,6.0481,6.0573,6.0553,6.0511,6.0446,6.0555,6.0593,6.0609,6.0391,6.0389,6.0387,6.0386,0,0,6.0499,6.0489,6.0506,6.051,6.0509,6.0536,6.0583,6.0604,6.0622,6.0631,6.0668,6.071,6.0671,6.068,6.0653,6.0689,6.079,6.0642,6.0642,6.0669,6.089,6.0921,6.094,6.0764,6.0767,6.0769,6.0889,0,6.0623,6.0703,6.0671,6.0753,6.0785,6.0729,6.077,6.0773,6.076,6.0785,6.077,6.08,6.0747,6.0752,6.0785,6.0771,6.0834,6.0762,6.0797,6.0799,6.0796,6.096,6.0993,6.1107,6.0904,6.0907,6.0909,0,6.0778,6.0793,6.0879,6.087,6.0883,6.092,6.0935,6.0961,6.0963,6.0951,6.0961,6.0926,6.097,6.0906,6.0966,6.0918,6.093,6.0926,6.0929,6.093,6.0859,6.0964,6.1142,6.1159,6.0932,6.0931,6.0929,0,6.0904,6.0946,6.1002,6.1007,6.0999,6.1026,6.1024,6.1023,6.1037,6.105,6.1058,6.1077,6.1087,6.1102,6.1073,6.1029,6.1136,6.107,6.1126,6.1127,6.115,6.1149,6.1331,6.1161,6.1161,6.116,6.116,0,6.1045,6.1099,6.1058,6.1093,6.1151,6.1113,6.1172,6.1164,6.1163,6.1194,6.1147,6.1177,6.1136,6.1162,6.1139,6.1191,6.1197,6.1187,6.118,6.1191,6.1192,6.1197,6.1188,6.1165,6.1164,6.1163,6.1162,0,6.1195,6.117,6.1227,6.1215,6.1213,6.1256,6.1245,6.1276,6.1259,6.1299,6.1306,6.1281,6.1308,6.1281,6.1307,6.1292,6.1361,6.1343,6.136,6.1355,6.1412,6.1406,6.1603,6.1626,6.1442,6.1444,6.1446,0,6.1286,6.1326,6.1317,6.1335,6.1336,6.1365,6.1378,6.1343,6.1359,6.1363,6.1393,6.1417,6.1434,6.1482,6.1465,6.1485,6.1466,6.1534,6.1469,6.1477,6.1465,6.1463,6.1466,6.1546,6.1549,6.155,6.1552,0,6.1449,6.1434,6.1456,6.1474,6.1492,6.1504,6.1512,6.1529,6.1492,6.1512,6.154,6.1554,6.158,6.1604,6.1619,6.1615,6.1578,6.1573,6.1586,6.1597,6.1604,6.1599,6.1395,6.1568,6.1566,6.1565,6.1564,6.1564,6.1571,6.1603,6.1602,6.1628,6.163,6.1639,6.1667,6.1654,6.1676,6.1695,6.1673,6.1707,6.1706,6.1722,6.1723,6.1749,6.172,6.174,6.1745,6.175,6.1758,6.1602,6.1752,6.1751,6.1751,6.175,6.175,0,6.173,6.1726,6.175,6.1763,6.1783,6.1746,6.1753,6.1772,6.1802,6.1806,6.1823,6.1855,6.1878,6.1863,6.1882,6.1905,6.1888,6.1912,6.1909,6.1908,6.1783,6.1769,6.1925,6.1925,6.1925,6.1925,6.1925,6.1925,6.1815,6.1867,6.1853,6.1905,6.1901,6.1934,6.1941,6.1948,6.195,6.1988,6.2006,6.1997,6.1992,6.2011,6.203,6.2025,6.2033,6.2063,6.2051,6.1935,6.1917,6.1901,6.1887,6.2065,6.2065,6.2174,6.2175,6.2176]}]]